Starlink 11728

operational
NORAD ID: 64323 Int'l Des: 2025-124 Owner: SPXS Country: US Constellation: starlink
LEOCIRCULAR

Über Starlink 11728

Beschreibung wird geladen...

Live-Position

3D-Globus wird geladen...

Nächste Überflüge

Höhenverlauf

Altitude vs Time

uPlot chart will show altitude changes over time

Zweizeiliger Elementsatz

1 64323U 25124G 25307.69984038 .00216390 00000-0 16424-2 0 9996
2 64323 42.9993 68.2657 0001500 302.4004 57.6719 15.70896480 23029
Epoch: 3. Nov. 2025 • Age: 24 hours

Aktueller Status

Höhe 367.4 km
Geschwindigkeit 7.69 km/s
Subsatellitenpunkt -42.28°S, 22.16°E
Startdatum 10. Juni 2025
Alter 0.4 years
Typ internet

Technische Details

Klassifizierung Payload
Masse 960.00 kg
Trockenmasse 910.00 kg
Gesamtmasse 960.00 kg
Länge 0.30 m
Durchmesser 4.10 m
Spannweite 29.00 m
Form Box + pan
Hersteller SPXS
Bus-Typ Starlink V2MD
Phasenstatus In Orbit
Besitzer/Staat SPXS/US

Große Konstellationen

Loading constellations...